GW5574 Weather Reports


Display with metric or nautical units.
time (UTC)temp
F
wind
direction
speed
MPH
gust
MPH
rain 1hr
in
rain 24hr
in
rain mn
in
humidity
%
barometer
mb
20260906143034 74 340 1.0 5.0 0.00 0.11 0.00 89 1017.9
20260906141523 74 99 1.0 4.0 0.00 0.11 0.00 89 1018.0
20260906140031 74 82 1.0 4.0 0.00 0.11 0.00 89 1017.8
20260906134524 73 78 0.0 3.0 0.00 0.11 0.00 91 1017.7
20260906133024 72 92 1.0 3.0 0.00 0.11 0.00 91 1017.8
20260906131527 72 197 0.0 2.0 0.00 0.11 0.00 92 1017.7
20260906130032 71 32 0.0 1.0 0.00 0.11 0.00 93 1017.7
20260906124527 71 75 0.0 2.0 0.00 0.11 0.00 93 1017.5
20260906123047 71 75 0.0 4.0 0.00 0.11 0.00 95 1017.6
20260906121519 71 352 0.0 1.0 0.00 0.11 0.00 96 1017.5
20260906120024 71 81 0.0 0.0 0.00 0.11 0.00 96 1017.4
20260906114528 71 81 0.0 1.0 0.00 0.11 0.00 96 1017.1
20260906113034 71 81 0.0 1.0 0.00 0.11 0.00 96 1016.6
20260906111532 71 81 0.0 1.0 0.00 0.11 0.00 96 1016.6
20260906110024 71 81 0.0 0.0 0.00 0.11 0.00 95 1016.4
20260906104526 71 81 0.0 1.0 0.00 0.11 0.00 95 1016.6
20260906103031 71 81 0.0 2.0 0.00 0.11 0.00 95 1016.5
20260906101532 71 130 0.0 1.0 0.00 0.11 0.00 95 1016.6
20260906100032 72 87 0.0 1.0 0.00 0.11 0.00 95 1016.3
20260906094524 72 87 0.0 0.0 0.00 0.11 0.00 95 1016.2
20260906093037 72 87 0.0 1.0 0.00 0.11 0.00 94 1015.9
20260906091510 73 87 0.0 1.0 0.00 0.11 0.00 94 1016.0
20260906090033 73 101 0.0 1.0 0.00 0.11 0.00 94 1015.8
20260906084520 73 110 0.0 1.0 0.00 0.11 0.00 94 1015.6
20260906083032 74 110 0.0 1.0 0.00 0.11 0.00 93 1015.6
20260906081529 74 117 0.0 1.0 0.00 0.11 0.00 93 1015.6
20260906080009 75 89 0.0 2.0 0.00 0.11 0.00 93 1015.9
20260906074514 75 76 0.0 2.0 0.00 0.11 0.00 92 1015.9
20260906073023 75 74 1.0 3.0 0.00 0.11 0.00 92 1015.8
20260906071528 76 83 0.0 3.0 0.00 0.11 0.00 92 1015.7
20260906070036 76 88 0.0 2.0 0.00 0.11 0.00 91 1015.7
20260906064510 76 88 0.0 2.0 0.00 0.11 0.00 91 1015.8
20260906063031 77 88 0.0 1.0 0.00 0.11 0.00 91 1015.8
20260906061525 77 79 0.0 2.0 0.00 0.11 0.00 91 1015.8
20260906060028 77 74 1.0 2.0 0.00 0.11 0.00 91 1015.8
20260906054533 78 76 0.0 2.0 0.00 0.11 0.00 91 1015.7
20260906053012 78 84 1.0 3.0 0.00 0.11 0.00 91 1015.6
20260906051537 78 83 0.0 3.0 0.00 0.11 0.00 92 1015.6
20260906050031 79 78 0.0 2.0 0.00 0.11 0.00 92 1015.3
20260906044529 79 78 0.0 1.0 0.00 0.11 0.11 91 1015.1
20260906043038 80 78 1.0 2.0 0.00 0.11 0.11 91 1015.0
20260906041533 80 63 1.0 2.0 0.00 0.11 0.11 90 1014.8
20260906040033 80 84 1.0 2.0 0.00 0.11 0.11 90 1014.7
20260906034537 80 58 1.0 2.0 0.00 0.11 0.11 90 1014.4
20260906033030 79 4 0.0 0.0 0.00 0.11 0.11 91 1014.4
20260906031538 79 4 0.0 0.0 0.00 0.11 0.11 89 1014.4
20260906030033 81 4 0.0 1.0 0.00 0.11 0.11 88 1014.4
20260906024525 82 4 0.0 1.0 0.00 0.11 0.11 86 1014.4
20260906023029 82 4 0.0 1.0 0.00 0.11 0.11 84 1014.4
20260906021530 83 4 0.0 2.0 0.00 0.11 0.11 83 1014.2
20260906020032 83 3 0.0 1.0 0.00 0.11 0.11 82 1014.0
20260906014535 83 3 0.0 1.0 0.00 0.11 0.11 82 1013.8
20260906013028 82 3 0.0 1.0 0.00 0.11 0.11 84 1013.7
20260906011527 82 3 0.0 0.0 0.00 0.11 0.11 85 1013.5
20260906010033 84 3 0.0 0.0 0.00 0.11 0.11 82 1013.3
20260906004518 85 3 0.0 2.0 0.00 0.11 0.11 79 1013.3
20260906003024 86 51 0.0 0.0 0.00 0.11 0.11 76 1013.3
20260906001527 87 51 0.0 1.0 0.00 0.11 0.11 75 1013.5
20260906000031 87 51 0.0 0.0 0.00 0.11 0.11 75 1013.3
20260905234514 87 51 0.0 0.0 0.00 0.11 0.11 74 1013.3
20260905233018 87 51 0.0 0.0 0.00 0.11 0.11 72 1013.1
20260905231528 88 50 0.0 1.0 0.00 0.11 0.11 71 1013.2
20260905230027 89 51 0.0 1.0 0.00 0.11 0.11 69 1013.0
20260905224531 91 63 0.0 3.0 0.00 0.11 0.11 65 1013.1
20260905223015 94 77 0.0 3.0 0.00 0.11 0.11 64 1012.9
20260905221521 94 82 0.0 2.0 0.00 0.11 0.11 68 1013.0
20260905220026 93 20 0.0 1.0 0.00 0.11 0.11 70 1013.1
20260905214503 91 20 0.0 1.0 0.00 0.11 0.11 76 1013.1
20260905213010 88 20 0.0 1.0 0.11 0.11 0.11 79 1013.1
20260905211516 84 20 0.0 1.0 0.11 0.11 0.11 87 1013.3
20260905210037 82 20 0.0 1.0 0.11 0.11 0.11 86 1013.4
20260905204534 81 20 1.0 10.0 0.11 0.11 0.11 82 1013.8
20260905203005 97 39 2.0 5.0 0.00 0.00 0.00 54 1013.7
20260905201513 98 359 2.0 5.0 0.00 0.00 0.00 48 1013.6
20260905200022 97 50 1.0 4.0 0.00 0.00 0.00 54 1013.8
20260905194526 98 345 1.0 4.0 0.00 0.00 0.00 50 1013.9
20260905193031 96 15 0.0 4.0 0.00 0.00 0.00 51 1014.1
20260905191536 97 126 2.0 6.0 0.00 0.00 0.00 48 1014.2
20260905190013 97 23 2.0 6.0 0.00 0.00 0.00 50 1014.1
20260905184520 98 325 1.0 5.0 0.00 0.00 0.00 48 1014.2
20260905183026 98 250 1.0 6.0 0.00 0.00 0.00 51 1014.3
20260905181528 98 13 1.0 4.0 0.00 0.00 0.00 48 1014.4
20260905180031 97 16 1.0 4.0 0.00 0.00 0.00 49 1014.5
20260905174520 99 238 1.0 5.0 0.00 0.00 0.00 49 1014.6
20260905173018 98 200 1.0 4.0 0.00 0.00 0.00 48 1014.8
20260905171535 97 349 1.0 5.0 0.00 0.00 0.00 51 1015.1
20260905170029 98 18 1.0 5.0 0.00 0.00 0.00 51 1015.2
20260905164539 97 40 1.0 3.0 0.00 0.00 0.00 52 1015.1
20260905163035 96 318 0.0 3.0 0.00 0.00 0.00 57 1015.0
20260905161519 95 28 2.0 4.0 0.00 0.00 0.00 56 1015.0
20260905160027 94 340 1.0 3.0 0.00 0.00 0.00 59 1015.1
20260905154529 93 330 1.0 3.0 0.00 0.00 0.00 61 1015.1
20260905153032 92 281 0.0 2.0 0.00 0.00 0.00 63 1015.0
20260905151536 90 233 0.0 3.0 0.00 0.00 0.00 69 1015.1
20260905150034 89 347 0.0 2.0 0.00 0.00 0.00 70 1015.0
20260905144536 87 320 0.0 2.0 0.00 0.00 0.00 72 1014.9